Theta_e
313 313 313 313 313 313 314 314 314 314 314 314 314 313 313 313 313 307 300 305 310 316 319 310 313 312 306 305 308 306 299 295 298 298 299 301 300 304 306 306 306 310 311 321 341
313 313 313 313 313 314 314 314 314 314 314 314 314 314 313 312 306 301 312 314 318 320 311 305 304 307 302 300 305 304 298 298 303 303 301 302 302 304 304 304 306 308 313 341 345
312 312 312 313 313 314 314 315 315 316 315 314 314 314 313 310 299 308 320 319 317 319 313 311 308 304 299 300 301 301 298 303 303 305 305 303 302 305 304 303 306 306 309 335 343
312 312 312 312 313 314 314 315 316 316 315 314 314 313 313 305 291 304 322 318 316 310 312 309 306 300 299 297 299 295 301 302 304 306 305 303 306 304 306 306 310 311 311 325 336
311 312 312 312 312 313 314 315 315 315 315 314 313 312 305 299 300 306 312 309 308 309 308 305 301 300 296 299 299 297 298 299 300 302 304 305 303 304 305 309 311 311 312 312 313
310 311 311 312 312 313 314 315 314 314 315 315 312 311 303 296 307 307 307 307 306 304 308 308 304 303 299 298 297 300 299 300 301 301 301 299 300 302 304 310 309 311 311 312 313
310 310 311 311 312 313 314 314 313 314 315 316 313 309 301 300 307 309 308 306 306 305 302 310 309 303 301 297 301 299 296 299 299 301 300 301 296 297 303 305 306 307 309 311 312
310 310 310 310 311 312 313 313 313 316 317 315 313 305 299 307 310 309 308 306 306 306 304 305 311 307 302 303 300 296 297 291 299 300 300 300 293 301 305 304 304 305 306 308 310
310 310 309 310 311 311 312 311 313 316 316 315 307 303 298 311 304 307 307 304 305 304 304 305 308 302 300 297 294 295 288 291 294 302 300 298 296 302 306 305 305 306 307 308 310
310 310 309 309 310 311 311 310 316 314 313 311 308 298 301 299 304 305 307 306 303 302 300 298 298 295 296 293 285 288 289 291 291 297 298 296 296 301 304 304 304 307 308 309 310
309 309 309 309 309 310 309 303 301 300 300 297 298 297 299 303 305 303 308 305 303 298 293 297 292 289 291 293 293 292 291 290 294 298 295 294 296 299 303 303 304 305 307 309 311
308 308 309 308 309 309 304 301 300 301 293 300 299 298 300 302 297 301 308 298 297 292 296 293 289 295 296 294 291 290 289 289 293 296 295 294 294 298 300 301 303 305 306 308 311
308 308 309 309 309 304 302 301 303 303 294 296 299 298 300 302 297 298 302 299 294 292 293 291 293 296 293 292 289 289 288 289 289 294 295 293 291 295 300 302 304 306 308 309 310
308 308 308 308 303 302 300 302 304 303 290 291 295 297 301 301 295 303 303 299 295 291 294 293 296 292 292 291 292 286 292 290 290 289 284 294 284 293 297 299 302 305 307 309 310
307 308 308 307 302 301 301 305 302 302 278 292 294 303 302 296 298 298 303 299 292 292 293 290 293 293 291 291 293 289 293 291 290 288 288 289 286 290 296 295 299 304 307 309 310
307 307 307 304 304 305 305 302 302 288 278 288 294 294 294 296 296 298 298 301 300 294 295 294 299 296 295 296 296 295 290 290 290 287 281 287 287 287 291 295 298 303 306 307 308
306 306 305 306 299 305 304 300 288 281 290 287 289 293 292 291 292 293 292 292 289 285 286 290 292 296 298 292 296 292 287 280 279 279 279 288 285 288 295 298 300 301 304 306 308
305 304 303 306 304 303 300 293 281 285 286 292 292 292 288 291 291 291 290 288 293 291 287 283 283 292 296 292 289 291 289 281 274 277 280 287 282 287 297 299 301 302 304 305 307
304 301 304 304 302 302 298 286 284 287 290 289 290 286 286 290 290 290 289 288 292 292 285 284 283 293 294 294 293 289 286 291 283 285 281 285 289 294 297 297 300 301 303 304 306
298 297 300 303 301 302 295 287 288 291 291 291 284 287 283 286 287 287 288 291 291 294 294 289 282 290 292 295 295 293 294 284 285 277 276 282 284 286 292 295 297 299 301 303 305
298 294 301 302 301 295 287 285 287 292 293 288 286 285 287 286 287 286 287 291 293 293 294 291 287 286 290 288 288 291 288 289 289 285 279 279 284 295 295 297 297 299 301 303 305
295 289 301 300 290 288 286 286 290 290 293 290 291 289 288 288 287 286 287 289 296 294 288 292 288 282 285 292 294 291 289 291 283 283 286 285 285 298 299 300 301 302 302 303 305
292 292 301 299 283 285 288 286 288 289 288 288 287 290 291 287 284 287 288 294 295 293 290 291 287 280 285 289 292 288 291 290 289 287 284 282 286 298 300 301 302 303 305 307 308
292 286 291 292 291 286 284 285 285 290 289 290 288 290 290 287 289 285 287 290 295 294 298 296 287 283 281 285 288 285 288 290 289 283 285 286 289 294 297 298 300 303 305 307 309
291 287 288 284 286 286 286 285 284 284 289 290 287 288 286 283 284 285 289 289 291 294 294 292 285 288 288 289 288 287 287 288 286 287 282 285 288 293 296 297 300 303 306 307 309
289 288 289 286 287 286 286 284 284 285 286 286 285 288 287 283 284 282 286 287 286 291 291 292 286 287 285 288 288 285 287 288 288 288 288 288 288 296 299 300 299 301 303 305 307
293 293 289 286 286 285 285 285 285 288 288 289 289 286 286 289 291 292 292 290 289 288 287 287 286 285 282 287 286 282 286 287 288 290 291 287 292 297 297 298 301 303 304 304 307
Wind_Speed
22 22 22 21 20 19 18 18 18 17 15 14 14 14 14 14 15 10 4 5 7 6 9 5 3 4 5 5 5 4 10 18 25 21 17 3 4 3 1 8 5 8 6 6 6
24 23 22 21 20 20 18 17 16 15 16 16 16 15 13 11 10 4 10 12 12 7 2 5 1 6 5 9 7 12 14 24 11 17 16 11 15 13 7 7 8 7 4 4 12
25 25 25 23 22 20 19 17 16 15 14 14 14 14 10 7 3 2 9 8 2 5 5 6 2 3 6 4 11 11 24 18 14 17 17 19 16 11 12 14 11 12 4 4 9
26 26 25 25 24 23 23 22 19 17 14 11 9 9 9 2 5 3 9 6 8 8 7 7 8 3 4 11 6 15 18 20 18 17 15 15 16 17 19 21 11 12 5 5 8
25 26 25 25 24 23 23 22 21 19 13 8 4 5 2 2 2 1 3 6 6 2 4 3 6 9 10 6 7 20 17 15 12 16 24 17 21 19 23 9 12 11 10 11 11
24 25 25 25 25 25 23 21 19 16 10 5 3 2 2 8 2 4 5 7 2 4 5 7 7 8 3 8 12 11 16 17 15 24 20 14 20 21 28 19 19 19 22 21 20
23 25 25 25 25 25 22 21 20 13 5 5 7 2 1 3 1 6 8 3 3 4 5 8 6 7 6 7 7 11 17 17 21 18 16 17 26 36 18 18 16 16 15 17 16
24 24 25 25 25 25 24 21 19 4 7 9 7 1 5 3 5 9 2 4 5 6 7 5 8 8 7 6 8 8 11 12 5 17 18 13 31 29 17 18 23 24 22 20 19
24 23 26 26 25 24 24 22 9 6 8 10 1 2 3 8 8 8 2 5 5 3 6 3 8 7 3 8 11 12 16 15 12 13 12 24 21 11 14 13 16 18 19 21 18
24 24 25 26 26 24 24 14 5 7 4 2 2 3 3 7 10 10 3 6 6 6 4 7 7 9 8 10 16 18 17 17 13 3 8 14 21 18 16 12 10 13 13 16 17
27 26 25 25 24 20 13 1 3 1 2 6 8 5 7 7 6 3 5 7 2 5 9 7 10 13 19 19 21 20 21 24 17 17 16 20 17 14 12 14 11 14 13 12 14
29 29 27 26 23 19 3 4 3 5 11 10 10 9 8 4 9 8 2 6 9 13 9 7 17 17 18 18 19 21 23 21 23 19 17 20 23 15 18 17 14 14 15 14 14
28 28 28 27 22 2 2 2 4 1 6 7 4 4 2 6 11 8 9 4 14 12 10 14 14 11 12 17 19 21 22 20 22 18 19 19 26 23 22 16 15 18 17 15 15
29 29 29 25 1 4 2 4 8 3 4 4 1 2 6 11 4 14 1 10 7 11 7 11 6 7 13 19 17 20 17 22 20 19 18 17 21 19 8 9 17 20 19 17 13
30 30 26 8 3 2 3 10 1 3 6 5 2 2 13 9 14 6 9 5 12 13 7 8 11 11 14 13 14 17 17 19 21 21 20 18 13 16 14 15 18 16 20 17 9
31 30 22 2 1 3 7 3 2 2 5 3 5 12 14 17 4 11 9 6 6 8 8 19 12 10 13 14 13 14 11 9 6 10 12 19 16 17 19 19 13 12 14 14 11
31 30 8 1 7 10 6 2 3 4 4 3 7 12 19 8 13 12 15 11 5 6 4 10 6 4 6 6 6 7 9 7 8 10 11 14 15 19 5 16 15 6 7 6 4
33 18 2 2 10 6 2 1 5 2 3 8 9 21 7 9 11 11 9 10 4 3 5 5 3 1 4 2 8 11 14 9 9 12 14 12 13 17 21 25 14 11 8 12 10
22 5 1 8 8 1 1 2 3 2 5 8 15 5 4 6 10 10 7 7 4 3 4 5 7 10 18 12 5 3 13 16 16 18 11 8 14 22 19 19 19 20 14 14 13
6 4 5 16 6 1 1 3 3 4 9 6 5 3 9 12 10 10 5 3 1 3 2 3 11 7 10 8 10 19 5 4 6 5 10 11 16 14 8 21 22 21 20 18 16
3 3 8 15 1 6 3 4 6 8 8 5 5 9 8 10 4 7 6 8 5 3 5 7 7 6 11 7 8 5 4 7 4 5 5 9 7 7 12 12 4 12 16 18 18
4 3 9 9 5 3 3 8 7 6 10 5 6 8 6 6 7 7 7 6 3 10 7 4 6 9 18 20 16 14 15 15 7 6 8 10 14 9 4 6 3 11 9 11 16
5 4 5 6 4 5 6 6 5 8 12 6 7 4 9 8 8 8 11 6 10 7 4 2 4 8 7 3 4 6 9 16 6 2 8 7 3 4 5 6 6 5 6 7 8
3 5 3 5 2 4 6 4 9 9 9 5 12 10 8 6 11 11 18 10 7 11 21 15 7 12 12 15 7 13 17 14 13 8 14 21 20 18 15 15 12 8 10 8 8
4 3 2 6 4 8 5 4 11 10 4 10 5 6 9 8 20 8 9 13 15 18 8 6 8 13 17 23 22 20 22 23 23 21 19 22 22 20 17 15 14 11 12 10 8
4 4 3 5 8 8 3 2 10 10 8 8 8 16 16 12 16 28 20 12 6 6 3 2 6 11 19 22 21 21 24 21 22 23 25 25 32 20 24 21 20 19 16 15 13
2 1 1 3 5 5 2 5 10 16 10 12 15 19 22 19 15 21 22 21 12 6 3 3 4 5 9 9 14 10 6 5 6 16 18 24 26 16 18 15 15 16 16 18 15
Wind_Direction
357 354 352 350 347 343 341 338 335 333 329 324 322 322 324 325 317 310 264 223 213 267 323 311 160 163 185 221 202 166 233 239 230 230 241 151 221 220 201 242 202 201 263 318 150
354 353 352 349 345 341 339 338 334 329 324 321 319 321 326 333 314 258 242 239 249 257 4 37 61 162 187 205 203 207 229 238 246 240 248 248 243 250 233 200 225 252 216 88 150
353 351 349 347 343 339 336 335 332 327 319 317 322 315 325 338 243 240 194 227 307 238 213 134 120 195 234 222 200 216 242 238 241 240 236 247 250 241 246 242 235 245 254 169 162
350 349 346 343 340 338 336 336 335 331 322 319 315 316 329 277 52 271 189 349 333 303 196 159 138 182 243 236 229 259 246 256 264 252 253 247 257 242 236 241 239 251 251 195 208
348 346 344 341 337 334 333 330 330 329 322 313 328 342 10 42 53 277 326 328 317 114 228 205 186 182 223 225 297 250 269 271 286 261 266 267 260 264 254 234 234 251 258 243 251
346 343 341 338 336 333 330 328 326 324 307 277 140 89 48 42 342 306 331 315 213 168 194 191 216 234 240 214 237 279 293 285 282 264 255 257 270 260 251 241 239 250 260 260 253
344 341 339 337 335 330 327 328 326 320 254 176 149 111 104 343 234 304 306 246 203 201 219 219 208 201 187 249 249 274 291 290 267 260 269 245 261 245 258 254 244 225 237 246 241
343 338 337 335 333 328 325 330 323 308 143 143 139 52 257 290 293 289 209 283 215 234 242 250 205 236 226 258 273 276 273 273 285 246 232 215 254 254 250 224 226 232 239 245 246
341 335 334 333 331 327 323 324 308 133 142 136 103 351 252 314 323 336 211 299 302 224 234 189 157 216 173 234 262 247 262 262 287 260 259 216 254 275 254 224 232 232 232 240 238
342 334 333 332 330 327 323 317 143 117 145 196 121 246 241 337 327 315 251 254 268 289 234 199 202 222 221 225 253 264 251 246 253 238 304 271 260 277 281 287 282 263 247 244 240
341 336 333 332 329 327 331 107 318 205 185 263 287 270 287 296 296 238 272 303 200 265 257 238 238 236 242 236 252 269 265 265 254 265 277 279 277 277 279 288 267 274 264 250 241
339 337 335 335 328 323 275 81 118 311 295 277 255 251 269 262 295 267 341 319 316 294 283 247 249 262 261 250 247 250 256 257 272 258 262 274 278 269 274 271 268 268 270 258 251
337 336 335 334 326 2 4 105 46 288 276 299 228 221 254 307 306 305 320 305 304 289 277 260 277 287 254 244 247 246 246 248 245 256 253 270 272 270 270 257 253 260 255 254 252
337 338 336 331 297 342 61 342 331 235 293 297 18 85 5 316 259 310 15 329 279 292 296 274 289 266 252 251 250 257 245 251 252 253 258 232 266 262 245 267 230 233 245 244 247
337 338 338 353 341 21 352 324 52 219 301 10 10 18 343 347 301 359 335 298 281 280 267 263 280 270 263 255 242 259 269 248 250 252 253 236 250 256 244 255 243 231 234 240 228
337 336 338 56 156 278 332 313 248 246 253 343 335 340 330 330 287 316 326 305 282 280 254 259 271 272 257 260 255 259 250 251 269 280 248 245 235 250 234 244 263 241 227 225 209
337 332 329 332 333 328 315 204 289 224 351 2 326 331 324 298 313 333 324 312 319 306 333 298 231 242 245 262 236 217 223 234 240 220 247 240 241 249 266 226 231 175 176 165 143
335 329 264 244 320 311 218 156 236 51 298 343 332 315 304 348 334 321 298 320 250 269 290 325 290 58 59 303 296 268 238 228 247 249 260 227 241 246 229 235 213 213 226 274 284
334 338 14 342 340 254 261 267 301 345 338 318 313 283 291 309 333 325 305 295 327 97 320 290 253 300 292 292 251 257 227 247 260 259 268 266 248 256 250 223 222 227 224 230 248
334 324 5 339 343 337 55 280 299 346 347 315 296 296 309 320 326 336 300 278 264 130 333 300 289 265 291 300 254 229 110 202 202 235 229 237 254 252 231 222 211 210 205 214 230
3 351 356 343 12 46 57 302 307 328 10 310 290 289 290 317 267 308 271 282 261 229 255 280 236 273 305 241 245 182 215 212 234 210 260 271 252 289 264 236 222 233 224 220 221
345 333 347 336 47 41 355 322 308 302 348 302 289 272 268 297 287 299 264 243 239 308 275 258 279 276 274 269 266 267 262 248 249 208 235 265 271 297 325 238 223 247 206 213 225
344 300 349 342 44 2 330 315 293 317 332 326 304 302 305 293 294 266 273 281 296 287 262 214 239 290 288 160 129 212 246 239 251 236 231 258 221 122 34 36 341 247 201 205 226
338 338 7 41 52 10 340 325 335 314 303 302 289 290 301 283 276 280 279 296 299 279 259 252 213 227 255 272 287 276 281 271 240 256 280 255 267 265 284 307 306 282 255 233 234
5 64 16 334 0 334 315 285 328 350 294 303 276 241 321 293 306 250 286 286 270 277 278 230 271 262 259 274 278 270 267 267 259 257 249 274 279 263 268 279 288 284 284 283 269
5 359 3 300 299 311 339 314 317 329 294 298 255 300 309 277 271 289 294 300 277 300 240 248 273 297 281 271 263 265 265 262 252 253 253 255 261 262 267 269 265 261 260 274 279
82 112 298 300 317 306 330 333 306 316 290 264 290 307 298 294 297 287 283 276 250 261 286 269 268 278 276 319 305 263 299 288 257 258 256 248 256 271 258 257 259 252 251 250 261